Exceptional Flight Instruction

Our Team

Safe Aircraft

Our Rentals

Outstanding Customer Service

Contact Us

AeroCamp 2017

AeroCamp Times (M-F 9AM-3PM)
June 19-23, 2017 – OPEN
July 10-14, 2017 – OPEN
$649/wk per Cadet (Roster size limited)

AeroCamp 2.0 Times (M-T 9AM-3PM)
June 26-29, 2017 – OPEN
July 17-20, 2017 – OPEN
$749/wk per Cadet (Roster size limited)

AeroCamp 3.0 Times (M-W – INCLUDES KITTY HAWK!)
June 12-14, 2017 – OPEN
August 7-9, 2017 – OPEN
$849/wk per Cadet (Roster size limited)

AeroCamp 4.0 Times (INCLUDES OSHKOSH!!)

July 24-28, 2017 - OPEN

Price TBD (Roster size limited)

About Us

Triad Aviation Academy, LLC


1030 PTI Drive
Greensboro, NC 27409

Phone: (336) 369-2804
Fax: (336) 664-6942

Weather

Available data for KGSO from the past 2 hours
GREENSBORO, NC
Metar
KGSO 171454Z 22008KT 6SM BR BKN005 OVC009 12/11 A3022 RMK AO2 SLP231 T01170106 53002

14:54 UTC

Wind: 220° 8kt

Visibility: 6 SM

Sky: BKN 500 ft

Temp: 12 deg C / 53.6 deg F

Dewpoint: 11 deg C / 51.8 deg F

Pressure: 30.22 inHg

TAF
KGSO 171256Z 1713/1812 21005KT 2SM BR OVC003 TEMPO 1713/1715 6SM BR OVC008 FM171500 22012KT P6SM OVC008 FM171700 22012G20KT P6SM BKN020 FM180200 25006KT 4SM BR OVC007 FM181100 27006KT 2SM BR OVC003